Regional Weather Roundup
Issued by NWS

Home | Current Version | Previous Version | Text Only | Print | Product List | Glossary On
Versions: 1 2 3 4 5 6 7 8 9 10 11 12 13 14 15 16 17 18 19 20 21 22 23 24 25 26 27
000
ASUS44 KBMX 232010
RWRAL

ALABAMA REGIONAL WEATHER ROUNDUP
NATIONAL WEATHER SERVICE BIRMINGHAM AL
300 PM CDT WED AUG 23 2017

NOTE: "FAIR" INDICATES FEW OR NO CLOUDS BELOW 12,000 FEET
WITH NO SIGNIFICANT WEATHER AND/OR OBSTRUCTIONS TO VISIBILITY.

THE REMARK "TC" DENOTES TEMPERATURE IN DEGREES CELSIUS.

ALZ001>011-014-016>018-020-232100-
NORTH ALABAMA

CITY           SKY/WX    TMP DP  RH WIND       PRES   REMARKS
MUSCLE SHOALS  MOSUNNY   86  66  51 NW7       29.99F
HUNTSVILLE     MOSUNNY   86  67  52 N7        29.97F
DECATUR        PTSUNNY   85  68  56 N12       29.97F
HALEYVILLE     FAIR      81  69  67 N7        30.01F
GADSDEN        MOSUNNY   88  69  53 N7        29.94F HX  92
$$

ALZ012-013-022-023-030>036-040>044-232100-
WEST CENTRAL ALABAMA

CITY           SKY/WX    TMP DP  RH WIND       PRES   REMARKS
TUSCALOOSA     MOSUNNY   89  72  56 N13       29.94F HX  96
DEMOPOLIS        N/A     91  71  52 N8        29.91F HX  98
$$

ALZ015-024>026-033>036-041>044-232100-
CENTRAL ALABAMA

CITY           SKY/WX    TMP DP  RH WIND       PRES   REMARKS
BIRMINGHAM     PTSUNNY   86  69  56 NW8       29.97F HX  90
MONTGOMERY     PTSUNNY   92  71  50 W18G26    29.89F HX  98
SHELBY CO ARPT PTSUNNY   88  72  58 VRB6      29.94F HX  94
MAXWELL AFB    LGT RAIN  86  76  71 W8        29.89F HX  95
GREENVILLE     FAIR      95  69  42 N5        29.90F HX 100
SELMA          FAIR      90  70  51 VRB7      29.90F HX  95
PRATTVILLE     FAIR      84  76  76 SW3       29.90F HX  93
BESSEMER       FAIR      87  71  58 VRB6      29.96F HX  93
TALLADEGA      FAIR     N/A N/A N/A MISG      29.95F
PELL CITY      PTCLDY    88  72  58 VRB6      29.94F HX  94
MARION         CLOUDY    93  74  54 NW10G16   29.90F HX 103
SYLACAUGA      PTSUNNY   89  72  55 CALM      29.94F HX  96
$$

ALZ019-021-028-029-037-038-045>048-232100-
EAST CENTRAL ALABAMA

CITY           SKY/WX    TMP DP  RH WIND       PRES   REMARKS
ANNISTON       PTSUNNY   87  68  52 N3        29.93F HX  90
ALEXANDER CITY MOSUNNY   89  71  55 N9        29.93F HX  94
AUBURN         CLOUDY    77  72  84 S9        29.93F
$$

ALZ051>064-232100-
SOUTHWEST ALABAMA

CITY           SKY/WX    TMP DP  RH WIND       PRES   REMARKS
MOBILE         PTSUNNY   90  75  61 W6        29.91F HX 100
BROOKLEY FIELD PTSUNNY   93  74  53 E5        29.91F HX 103
EVERGREEN      MOSUNNY   92  73  53 CALM      29.90F HX 100
$$

ALZ049-050-065>069-232100-
SOUTHEAST ALABAMA

CITY           SKY/WX    TMP DP  RH WIND       PRES   REMARKS
DOTHAN         SUNNY     93  74  53 CALM      29.93F HX 103
OZARK          SUNNY     94  73  49 NW6       29.89F HX 103
TROY           CLOUDY    95  72  47 VRB6      29.90F HX 103
EUFAULA        FAIR      95  73  48 W3        29.88F HX 104
$$




USA.gov is the U.S. government's official web portal to all federal, state and local government web resources and services.